User: anonymous   Login
Location: Hickory_CSC
(35.7330°N, 81.3330°W)
Time: 22:56:43
(UTC-05:00)
Language:

Cosmos 1356 Rocket - Orbit

View from above orbital plane
View from above orbital plane
View from above satellite
View from above satellite

Ground track
Ground track

The orbit data is extracted from the following two-line orbital elements,

1 13154U 82039B   17326.61979390 +.00000362 +00000-0 +27902-4 0  9994
2 13154 081.1857 051.5835 0041104 134.9009 225.5559 14.98418574927180
Epoch (UTC): 22 November 2017 14:52:30
Eccentricity: 0.0041104
inclination: 81.1857°
perigee height: 543 km
apogee height: 600 km
right ascension of ascending node: 51.5835°
argument of perigee: 134.9009°
revolutions per day: 14.98418574
mean anomaly at epoch: 225.5559°
orbit number at epoch: 92718

The dashed part of the orbit path shows where the satellite is in the earth's shadow,  

DLR